Météo par heure à Julianow

Ce jour, 17 Juin, Jeudi

Heure Température Précipitation Vent Pression Humidité
00:00 +15°C° 0 mm 2 m/s 749 mmHg 79%
01:00 +14°C° 0 mm 2 m/s 749 mmHg 79%
02:00 +14°C° 0 mm 2 m/s 749 mmHg 80%
03:00 +14°C° 0 mm 2 m/s 749 mmHg 81%
04:00 +14°C° 0 mm 1 m/s 749 mmHg 82%
05:00 +16°C° 0 mm 2 m/s 750 mmHg 78%
06:00 +17°C° 0 mm 2 m/s 750 mmHg 73%
07:00 +19°C° 0 mm 3 m/s 750 mmHg 68%
08:00 +21°C° 0 mm 3 m/s 750 mmHg 62%
09:00 +22°C° 0 mm 3 m/s 751 mmHg 56%
10:00 +24°C° 0 mm 3 m/s 751 mmHg 51%
11:00 +25°C° 0 mm 3 m/s 751 mmHg 48%
12:00 +26°C° 0 mm 3 m/s 750 mmHg 45%
13:00 +26°C° 0 mm 3 m/s 750 mmHg 43%
14:00 +26°C° 0 mm 3 m/s 750 mmHg 44%
15:00 +26°C° 0 mm 3 m/s 750 mmHg 46%
16:00 +26°C° 0 mm 3 m/s 750 mmHg 47%
17:00 +25°C° 0 mm 3 m/s 750 mmHg 55%
18:00 +23°C° 0 mm 2 m/s 750 mmHg 62%
19:00 +21°C° 0 mm 2 m/s 750 mmHg 69%
20:00 +20°C° 0 mm 2 m/s 750 mmHg 70%
21:00 +19°C° 0 mm 2 m/s 750 mmHg 72%
22:00 +18°C° 0 mm 2 m/s 751 mmHg 73%
23:00 +17°C° 0 mm 2 m/s 750 mmHg 77%

Demain, 18 Juin, Vendredi

Heure Température Précipitation Vent Pression Humidité
00:00 +17°C° 0 mm 2 m/s 750 mmHg 81%
01:00 +17°C° 0 mm 2 m/s 750 mmHg 84%
02:00 +17°C° 0 mm 2 m/s 750 mmHg 87%
03:00 +16°C° 0 mm 2 m/s 750 mmHg 89%
04:00 +16°C° 0 mm 2 m/s 750 mmHg 91%
05:00 +18°C° 0 mm 3 m/s 750 mmHg 85%
06:00 +20°C° 0 mm 3 m/s 750 mmHg 79%
07:00 +22°C° 0 mm 4 m/s 751 mmHg 73%
08:00 +23°C° 0 mm 4 m/s 750 mmHg 68%
09:00 +25°C° 0 mm 4 m/s 750 mmHg 64%
10:00 +27°C° 0 mm 5 m/s 750 mmHg 59%
11:00 +27°C° 0 mm 5 m/s 750 mmHg 57%
12:00 +28°C° 0 mm 5 m/s 750 mmHg 54%
13:00 +28°C° 0 mm 4 m/s 750 mmHg 51%
14:00 +28°C° 0 mm 4 m/s 749 mmHg 52%
15:00 +28°C° 0 mm 4 m/s 749 mmHg 53%
16:00 +28°C° 0 mm 4 m/s 749 mmHg 53%
17:00 +27°C° 0 mm 4 m/s 749 mmHg 61%
18:00 +25°C° 0 mm 3 m/s 749 mmHg 69%
19:00 +24°C° 0 mm 3 m/s 749 mmHg 77%
20:00 +22°C° 0 mm 3 m/s 749 mmHg 80%
21:00 +20°C° 0 mm 3 m/s 749 mmHg 83%
22:00 +19°C° 0 mm 3 m/s 749 mmHg 87%
23:00 +19°C° 0 mm 3 m/s 749 mmHg 87%

Après-demain, 19 Juin, Samedi

Heure Température Précipitation Vent Pression Humidité
00:00 +18°C° 0 mm 3 m/s 749 mmHg 88%
01:00 +18°C° 0 mm 3 m/s 749 mmHg 88%
02:00 +18°C° 0 mm 3 m/s 749 mmHg 91%
03:00 +18°C° 0 mm 3 m/s 749 mmHg 93%
04:00 +18°C° 0 mm 3 m/s 749 mmHg 95%
05:00 +19°C° 0 mm 3 m/s 749 mmHg 89%
06:00 +21°C° 0 mm 4 m/s 749 mmHg 84%
07:00 +23°C° 0 mm 4 m/s 749 mmHg 78%
08:00 +25°C° 0 mm 5 m/s 749 mmHg 72%
09:00 +26°C° 0 mm 5 m/s 749 mmHg 67%
10:00 +27°C° 0 mm 5 m/s 749 mmHg 61%
11:00 +28°C° 0 mm 5 m/s 749 mmHg 59%
12:00 +28°C° 0 mm 5 m/s 748 mmHg 57%
13:00 +29°C° 0 mm 5 m/s 748 mmHg 55%
14:00 +29°C° 0 mm 5 m/s 748 mmHg 55%
15:00 +29°C° 0 mm 5 m/s 748 mmHg 56%
16:00 +29°C° 0 mm 5 m/s 748 mmHg 56%
17:00 +27°C° 0 mm 4 m/s 748 mmHg 64%
18:00 +26°C° 0 mm 3 m/s 747 mmHg 71%
19:00 +25°C° 0 mm 3 m/s 747 mmHg 78%
20:00 +22°C° 0 mm 3 m/s 747 mmHg 82%
21:00 +21°C° 0 mm 3 m/s 748 mmHg 86%
22:00 +20°C° 0 mm 3 m/s 748 mmHg 89%
23:00 +19°C° 0 mm 3 m/s 748 mmHg 91%

20 Juin, Dimanche

Heure Température Précipitation Vent Pression Humidité
00:00 +19°C° 0 mm 3 m/s 747 mmHg 92%
01:00 +18°C° 0 mm 3 m/s 747 mmHg 93%
02:00 +18°C° 0 mm 3 m/s 747 mmHg 93%
03:00 +18°C° 0 mm 3 m/s 747 mmHg 94%
04:00 +17°C° 0 mm 2 m/s 747 mmHg 94%
05:00 +19°C° 0 mm 3 m/s 747 mmHg 88%
06:00 +21°C° 0 mm 3 m/s 747 mmHg 82%
07:00 +22°C° 0 mm 4 m/s 747 mmHg 76%
08:00 +23°C° 0 mm 4 m/s 747 mmHg 71%
09:00 +26°C° 0 mm 5 m/s 747 mmHg 66%
10:00 +27°C° 0 mm 5 m/s 747 mmHg 61%
11:00 +27°C° 0 mm 5 m/s 746 mmHg 58%
12:00 +28°C° 0 mm 5 m/s 746 mmHg 56%
13:00 +29°C° 0 mm 5 m/s 746 mmHg 53%
14:00 +29°C° 0 mm 5 m/s 745 mmHg 53%
15:00 +29°C° 0 mm 4 m/s 745 mmHg 54%
16:00 +29°C° 0 mm 4 m/s 745 mmHg 54%
17:00 +28°C° 0 mm 4 m/s 745 mmHg 61%
18:00 +26°C° 0 mm 4 m/s 744 mmHg 68%
19:00 +25°C° 0 mm 3 m/s 744 mmHg 75%
20:00 +24°C° 0 mm 3 m/s 744 mmHg 80%
21:00 +22°C° 0 mm 3 m/s 744 mmHg 85%
22:00 +21°C° 0 mm 4 m/s 744 mmHg 89%
23:00 +20°C° 0 mm 3 m/s 744 mmHg 91%

21 Juin, Lundi

Heure Température Précipitation Vent Pression Humidité
00:00 +20°C° 0 mm 3 m/s 744 mmHg 93%
01:00 +19°C° 0 mm 3 m/s 744 mmHg 95%
02:00 +19°C° 0 mm 3 m/s 744 mmHg 95%
03:00 +19°C° 0 mm 3 m/s 744 mmHg 95%
04:00 +19°C° 0 mm 3 m/s 744 mmHg 95%
05:00 +20°C° 0 mm 4 m/s 744 mmHg 88%
06:00 +21°C° 0 mm 5 m/s 744 mmHg 81%
07:00 +23°C° 0 mm 5 m/s 743 mmHg 74%
08:00 +24°C° 0 mm 6 m/s 743 mmHg 69%
09:00 +26°C° 0 mm 6 m/s 743 mmHg 64%
10:00 +27°C° 0 mm 6 m/s 743 mmHg 59%
11:00 +28°C° 0 mm 6 m/s 743 mmHg 59%
12:00 +28°C° 0 mm 5 m/s 743 mmHg 58%
13:00 +28°C° 0 mm 5 m/s 743 mmHg 57%
14:00 +28°C° 0 mm 5 m/s 743 mmHg 57%
15:00 +28°C° 0 mm 4 m/s 742 mmHg 58%
16:00 +28°C° 0 mm 4 m/s 742 mmHg 58%
17:00 +27°C° 0 mm 4 m/s 742 mmHg 64%
18:00 +26°C° 0 mm 3 m/s 742 mmHg 71%
19:00 +25°C° 0 mm 3 m/s 742 mmHg 77%
20:00 +24°C° 0 mm 3 m/s 742 mmHg 81%
21:00 +21°C° 0 mm 3 m/s 742 mmHg 85%
22:00 +20°C° 0 mm 3 m/s 741 mmHg 89%
23:00 +20°C° 0 mm 3 m/s 741 mmHg 90%

22 Juin, Mardi

Heure Température Précipitation Vent Pression Humidité
00:00 +19°C° 0 mm 3 m/s 741 mmHg 92%
01:00 +19°C° 0 mm 3 m/s 741 mmHg 93%
02:00 +19°C° 0 mm 3 m/s 741 mmHg 93%
03:00 +19°C° 0 mm 3 m/s 741 mmHg 93%
04:00 +19°C° 0 mm 3 m/s 741 mmHg 93%
05:00 +21°C° 0 mm 4 m/s 741 mmHg 87%
06:00 +22°C° 0 mm 4 m/s 741 mmHg 81%
07:00 +25°C° 0 mm 5 m/s 741 mmHg 74%
08:00 +27°C° 0 mm 5 m/s 741 mmHg 68%
09:00 +28°C° 0 mm 5 m/s 741 mmHg 63%
10:00 +30°C° 0 mm 5 m/s 741 mmHg 57%
11:00 +30°C° 0 mm 5 m/s 741 mmHg 54%
12:00 +32°C° 0 mm 5 m/s 741 mmHg 50%
13:00 +33°C° 0 mm 5 m/s 741 mmHg 47%
14:00 +32°C° 0.3 mm 4 m/s 741 mmHg 52%
15:00 +30°C° 0.3 mm 4 m/s 741 mmHg 58%
16:00 +29°C° 0.3 mm 4 m/s 742 mmHg 64%
17:00 +26°C° 2.5 mm 4 m/s 742 mmHg 73%
18:00 +24°C° 2.5 mm 3 m/s 742 mmHg 82%
19:00 +21°C° 2.5 mm 3 m/s 742 mmHg 91%
20:00 +20°C° 1 mm 2 m/s 742 mmHg 93%
21:00 +20°C° 1 mm 2 m/s 743 mmHg 94%
22:00 +19°C° 1 mm 2 m/s 743 mmHg 96%
23:00 +19°C° 0.2 mm 2 m/s 743 mmHg 96%
Voir plus

Nous avons besoin de votre consentement

Meteoprog et ses fournisseurs de services peuvent stocker et accéder à des données personnelles telles que des cookies, des identifiants d'appareils ou d'autres technologies similaires sur votre appareil et traiter ces données pour personnaliser le contenu et les publicités, ainsi que pour fournir des fonctionnalités de médias sociaux et analyser le trafic.

  • Stocker et/ou accéder à des informations sur votre appareil

    Des cookies, des identifiants d'appareils ou d'autres informations peuvent être stockés ou accessibles sur votre appareil aux fins indiquées ci-dessus.

  • Annonces et contenus personnalisés, mesure des annonces et des contenus, connaissance de l'audience et développement de produits

    Les annonces et le contenu peuvent être personnalisés en fonction d'un profil. D'autres données peuvent être ajoutées pour mieux personnaliser les annonces et le contenu. Les performances des publicités et du contenu peuvent être mesurées. Il est possible d'obtenir des informations sur le public qui a vu les publicités et le contenu. Ces données peuvent être utilisées pour développer ou améliorer l'expérience de l'utilisateur, les systèmes et les logiciels.

En cliquant sur "J'accepte", vous autorisez l'utilisation de cookies, des identifiants d'appareils, des balises web ou d'autres technologies similaires. Vos paramètres peuvent être modifiés dans le navigateur de votre appareil.

Dans certains cas, des intérêts légitimes peuvent être invoqués plutôt qu'un consentement. Vous pouvez en savoir plus à ce sujet dans notre Politique de confidentialité et de cookies.